Location: Possagno
(45.8500°N, 11.8667°E)
Time: 21:08:30
(UTC+00:00)

Landsat 5 - Pass Details

Date: 07 June 2020
Orbit: 528 x 655 km, 98.2° (Epoch: 11 July)

Event Time Altitude Azimuth Distance (km) Brightness Sun altitude
Rises 02:40:11 0° 169° (S) 2,967 6.7 -6.7°
Reaches altitude 10° 02:42:24 10° 172° (S) 2,057 5.9 -6.4°
Maximum altitude 02:46:54 74° 257° (WSW) 678 3.6 -5.8°
Drops below altitude 10° 02:51:22 10° 343° (NNW) 2,035 6.6 -5.2°
Sets 02:53:33 0° 345° (NNW) 2,933 7.4 -4.9°
